Torna al catalogo

STARLINK-32424

AttivoComunicazioniVLEO
NORAD 61548·PAYLOAD·🇺🇸 United States

Lanciato Oct 15, 2024 da Vandenberg Space Force Base

Loading…

Prossimi Passaggi (prossime 24 ore)

TLE

AggiornatoSource: CelesTrak SupGP

Epoca: Sep 14, 2026, 15:14 UTC

1 61548C 24184S   26257.63520833  .00010013  00000+0  29594-3 0  2578
2 61548  53.1578 213.1190 0001393 100.4023 143.2532 15.34374447    11

Traccia STARLINK-32424 in tempo reale con AllMySat

Download on the App Store